START_TIME,STEP,MOV.,M6,t_acc.,M7,t_acc.,M19,t_acc.,H36,t_acc.
1979-08-02 23:07:13.930 ,0,0,0.,12.0,0.,12.0,0.,12.0,0.,12.0
1979-08-02 23:07:25.930 ,0,0,0.,12.0,0.,12.0,0.,12.0,0.,12.0
1979-08-02 23:07:37.930 ,0,0,0.,12.0,0.,12.0,0.,12.0,0.,12.0
1979-08-02 23:07:49.930 ,0,0,0.,12.0,0.,12.0,0.,12.0,0.,12.0
1979-08-02 23:08:01.930 ,4,1,0.,12.0,0.,12.0,0.,12.0,0.,12.0
1979-08-02 23:08:13.930 ,4,1,0.,12.0,0.,12.0,0.,12.0,0.,12.0
1979-08-02 23:08:25.930 ,4,0,0.,12.0,0.,12.0,0.,12.0,0.,12.0
1979-08-02 23:08:37.930 ,4,0,0.,12.0,0.,12.0,0.,12.0,0.,12.0
1979-08-02 23:08:49.930 ,3,1,0.,12.0,0.,12.0,0.,12.0,0.,12.0
1979-08-02 23:09:01.930 ,3,1,0.,12.0,0.,12.0,0.,12.0,0.,12.0
1979-08-02 23:09:13.930 ,3,0,0.,12.0,0.,12.0,0.,12.0,0.,12.0
1979-08-02 23:09:25.930 ,3,0,0.,12.0,0.,12.0,0.,12.0,0.,12.0
1979-08-02 23:09:37.930 ,2,1,0.,12.0,0.,12.0,0.,12.0,0.,12.0
1979-08-02 23:09:49.930 ,2,1,0.,12.0,0.,12.0,0.,12.0,0.,12.0
1979-08-02 23:10:01.930 ,2,0,0.,12.0,0.,12.0,0.,12.0,0.,12.0
1979-08-02 23:10:13.930 ,2,0,0.,12.0,0.,12.0,0.,12.0,0.,12.0
1979-08-02 23:10:25.930 ,1,1,0.,12.0,0.,12.0,0.,12.0,0.,12.0
1979-08-02 23:10:37.930 ,1,1,0.,12.0,0.,12.0,0.,12.0,0.,12.0
1979-08-02 23:10:49.930 ,1,0,0.,12.0,0.,12.0,0.,12.0,0.,12.0
1979-08-02 23:11:01.930 ,1,0,0.,12.0,0.,12.0,0.,12.0,0.,12.0
1979-08-02 23:11:13.930 ,0,1,0.,12.0,0.,12.0,0.,12.0,0.,12.0
1979-08-02 23:11:25.930 ,0,1,0.,12.0,0.,12.0,0.,12.0,0.,12.0
1979-08-02 23:11:37.930 ,0,0,0.,12.0,0.,12.0,0.,12.0,0.,12.0
1979-08-02 23:11:49.930 ,0,0,0.,12.0,0.,12.0,0.,12.0,0.,12.0
1979-08-02 23:12:01.930 ,0,1,0.,12.0,0.,12.0,0.,12.0,0.,12.0
1979-08-02 23:12:13.930 ,0,1,0.,12.0,0.,12.0,0.,12.0,0.,12.0
1979-08-02 23:12:25.930 ,0,0,0.,12.0,0.,12.0,0.,12.0,0.,12.0
1979-08-02 23:12:37.930 ,0,0,0.,12.0,0.,12.0,0.,12.0,0.,12.0
1979-08-02 23:12:49.930 ,1,1,0.,12.0,0.,12.0,0.,12.0,0.,12.0
1979-08-02 23:13:01.930 ,1,1,0.,12.0,0.,12.0,0.,12.0,0.,12.0
1979-08-02 23:13:13.930 ,1,0,0.,12.0,0.,12.0,0.,12.0,0.,12.0
1979-08-02 23:13:25.930 ,1,0,0.,12.0,0.,12.0,0.,12.0,0.,12.0
1979-08-02 23:13:37.930 ,2,1,0.,12.0,0.,12.0,0.,12.0,0.,12.0
1979-08-02 23:13:49.930 ,2,1,0.,12.0,0.,12.0,0.,12.0,0.,12.0
1979-08-02 23:14:01.930 ,2,0,0.,12.0,0.,12.0,0.,12.0,0.,12.0
1979-08-02 23:14:13.930 ,2,0,0.,12.0,0.,12.0,0.,12.0,0.,12.0
1979-08-02 23:14:25.930 ,3,1,0.,12.0,0.,12.0,0.,12.0,0.,12.0
1979-08-02 23:14:37.930 ,3,1,0.,12.0,0.,12.0,0.,12.0,0.,12.0
1979-08-02 23:14:49.930 ,3,0,0.,12.0,0.,12.0,0.,12.0,0.,12.0
1979-08-02 23:15:01.930 ,3,0,0.,12.0,0.,12.0,0.,12.0,0.,12.0
1979-08-02 23:15:13.930 ,4,1,0.,12.0,0.,12.0,0.,12.0,0.,12.0
1979-08-02 23:15:25.930 ,4,1,0.,12.0,0.,12.0,0.,12.0,0.,12.0
1979-08-02 23:15:37.930 ,4,0,0.,12.0,0.,12.0,0.,12.0,0.,12.0
1979-08-02 23:15:49.930 ,4,0,0.,12.0,0.,12.0,0.,12.0,0.,12.0
1979-08-02 23:16:01.930 ,5,1,0.,12.0,0.,12.0,0.,12.0,0.,12.0
1979-08-02 23:16:13.930 ,5,1,0.,12.0,0.,12.0,0.,12.0,0.,12.0
1979-08-02 23:16:25.930 ,5,0,0.,12.0,0.,12.0,0.,12.0,0.,12.0
1979-08-02 23:16:37.930 ,5,0,0.,12.0,0.,12.0,0.,12.0,0.,12.0
1979-08-02 23:16:49.930 ,6,1,0.,12.0,0.,12.0,0.,12.0,0.,12.0
1979-08-02 23:17:01.930 ,6,1,0.,12.0,0.,12.0,0.,12.0,0.,12.0
1979-08-02 23:17:13.930 ,6,0,0.,12.0,0.,12.0,0.,12.0,0.,12.0
1979-08-02 23:17:25.930 ,6,0,0.,12.0,0.,12.0,0.,12.0,0.,12.0
1979-08-02 23:17:37.930 ,7,1,0.,12.0,0.,12.0,0.,12.0,0.,12.0
1979-08-02 23:17:49.930 ,7,1,0.,12.0,0.,12.0,0.,12.0,0.,12.0
1979-08-02 23:18:01.930 ,7,0,0.,12.0,0.,12.0,0.,12.0,0.,12.0
1979-08-02 23:18:13.930 ,7,0,0.,12.0,0.,12.0,0.,12.0,0.,12.0
1979-08-02 23:18:25.930 ,7,1,0.,12.0,0.,12.0,0.,12.0,0.,12.0
1979-08-02 23:18:37.930 ,7,1,0.,12.0,0.,12.0,0.,12.0,0.,12.0
1979-08-02 23:18:49.930 ,7,0,0.,12.0,0.,12.0,0.,12.0,0.,12.0
1979-08-02 23:19:01.930 ,7,0,0.,12.0,0.,12.0,0.,12.0,0.,12.0
1979-08-02 23:19:13.930 ,6,1,0.,12.0,0.,12.0,0.,12.0,0.,12.0
1979-08-02 23:19:25.930 ,6,1,0.,12.0,0.,12.0,0.,12.0,0.,12.0
1979-08-02 23:19:37.930 ,6,0,0.,12.0,0.,12.0,0.,12.0,0.,12.0
1979-08-02 23:19:49.930 ,6,0,0.,12.0,0.,12.0,0.,12.0,0.,12.0
1979-08-02 23:20:01.930 ,5,1,0.,12.0,0.,12.0,0.,12.0,0.,12.0
1979-08-02 23:20:13.930 ,5,1,0.,12.0,0.,12.0,0.,12.0,0.,12.0
1979-08-02 23:20:25.930 ,5,0,0.,12.0,0.,12.0,0.,12.0,0.,12.0
1979-08-02 23:20:37.930 ,5,0,0.,12.0,0.,12.0,0.,12.0,0.,12.0
1979-08-02 23:20:49.930 ,4,1,0.,12.0,0.,12.0,0.,12.0,0.,12.0
1979-08-02 23:21:01.930 ,4,1,0.,12.0,0.,12.0,0.,12.0,0.,12.0
1979-08-02 23:21:13.930 ,4,0,0.,12.0,0.,12.0,0.,12.0,0.,12.0
1979-08-02 23:21:25.930 ,4,0,0.,12.0,0.,12.0,0.,12.0,0.,12.0
1979-08-02 23:21:37.930 ,3,1,0.,12.0,0.,12.0,0.,12.0,0.,12.0
1979-08-02 23:21:49.930 ,3,1,0.,12.0,0.,12.0,0.,12.0,0.,12.0
1979-08-02 23:22:01.930 ,3,0,0.,12.0,0.,12.0,0.,12.0,0.,12.0
1979-08-02 23:22:13.930 ,3,0,0.,12.0,0.,12.0,0.,12.0,0.,12.0
1979-08-02 23:22:25.930 ,2,1,0.,12.0,0.,12.0,0.,12.0,0.,12.0
1979-08-02 23:22:37.930 ,2,1,0.,12.0,0.,12.0,0.,12.0,0.,12.0
1979-08-02 23:22:49.930 ,2,0,0.,12.0,0.,12.0,0.,12.0,0.,12.0
1979-08-02 23:23:01.930 ,2,0,0.,12.0,0.,12.0,0.,12.0,0.,12.0
1979-08-02 23:23:13.930 ,1,1,0.,12.0,0.,12.0,0.,12.0,0.,12.0
1979-08-02 23:23:25.930 ,1,1,0.,12.0,0.,12.0,0.,12.0,0.,12.0
1979-08-02 23:23:37.930 ,1,0,0.,12.0,0.,12.0,0.,12.0,1.,12.0
1979-08-02 23:23:49.930 ,1,0,0.,12.0,0.,12.0,0.,12.0,0.,12.0
1979-08-02 23:24:01.930 ,0,1,0.,12.0,0.,12.0,0.,12.0,0.,12.0
1979-08-02 23:24:13.930 ,0,1,0.,12.0,0.,12.0,0.,12.0,0.,12.0
1979-08-02 23:24:25.930 ,0,0,0.,12.0,0.,12.0,0.,12.0,0.,12.0
1979-08-02 23:24:37.930 ,0,0,0.,12.0,0.,12.0,0.,12.0,0.,12.0
1979-08-02 23:24:49.930 ,0,1,0.,12.0,0.,12.0,0.,12.0,0.,12.0
1979-08-02 23:25:01.930 ,0,1,0.,12.0,0.,12.0,0.,12.0,0.,12.0
1979-08-02 23:25:13.930 ,0,0,0.,12.0,0.,12.0,0.,12.0,0.,12.0
1979-08-02 23:25:25.930 ,0,0,0.,12.0,0.,12.0,0.,12.0,0.,12.0
1979-08-02 23:25:37.930 ,1,1,0.,12.0,0.,12.0,0.,12.0,0.,12.0
1979-08-02 23:25:49.930 ,1,1,0.,12.0,0.,12.0,0.,12.0,0.,12.0
1979-08-02 23:26:01.930 ,1,0,0.,12.0,0.,12.0,0.,12.0,0.,12.0
1979-08-02 23:26:13.930 ,1,0,0.,12.0,0.,12.0,0.,12.0,0.,12.0
1979-08-02 23:26:25.930 ,2,1,0.,12.0,0.,12.0,0.,12.0,0.,12.0
1979-08-02 23:26:37.930 ,2,1,0.,12.0,0.,12.0,0.,12.0,0.,12.0
1979-08-02 23:26:49.930 ,2,0,0.,12.0,0.,12.0,0.,12.0,0.,12.0
1979-08-02 23:27:01.930 ,2,0,0.,12.0,0.,12.0,0.,12.0,0.,12.0
1979-08-02 23:27:13.930 ,3,1,0.,12.0,0.,12.0,0.,12.0,0.,12.0
1979-08-02 23:27:25.930 ,3,1,0.,12.0,0.,12.0,0.,12.0,0.,12.0
1979-08-02 23:27:37.930 ,3,0,0.,12.0,0.,12.0,0.,12.0,0.,12.0
1979-08-02 23:27:49.930 ,3,0,0.,12.0,0.,12.0,0.,12.0,0.,12.0
1979-08-02 23:28:01.930 ,4,1,0.,12.0,0.,12.0,0.,12.0,0.,12.0
1979-08-02 23:28:13.930 ,4,1,0.,12.0,0.,12.0,0.,12.0,0.,12.0
1979-08-02 23:28:25.930 ,4,0,0.,12.0,0.,12.0,0.,12.0,0.,12.0
1979-08-02 23:28:37.930 ,4,0,0.,12.0,0.,12.0,0.,12.0,0.,12.0
1979-08-02 23:28:49.930 ,5,1,0.,12.0,0.,12.0,0.,12.0,0.,12.0
1979-08-02 23:29:01.930 ,5,1,0.,12.0,0.,12.0,0.,12.0,0.,12.0
1979-08-02 23:29:13.930 ,5,0,0.,12.0,0.,12.0,0.,12.0,0.,12.0
1979-08-02 23:29:25.930 ,5,0,0.,12.0,0.,12.0,0.,12.0,0.,12.0
1979-08-02 23:29:37.930 ,6,1,0.,12.0,0.,12.0,0.,12.0,0.,12.0
1979-08-02 23:29:49.930 ,6,1,0.,12.0,0.,12.0,0.,12.0,0.,12.0
1979-08-02 23:30:01.930 ,6,0,0.,12.0,0.,12.0,0.,12.0,0.,12.0
1979-08-02 23:30:13.930 ,6,0,0.,12.0,0.,12.0,0.,12.0,0.,12.0
1979-08-02 23:30:25.930 ,7,0,0.,12.0,0.,12.0,0.,12.0,0.,12.0
1979-08-02 23:30:37.930 ,7,0,0.,12.0,0.,12.0,0.,12.0,0.,12.0
1979-08-02 23:30:49.930 ,7,0,0.,12.0,0.,12.0,0.,12.0,0.,12.0
1979-08-02 23:31:01.930 ,7,0,0.,12.0,0.,12.0,0.,12.0,0.,12.0
1979-08-02 23:31:13.930 ,4,1,0.,12.0,0.,12.0,0.,12.0,0.,12.0
1979-08-02 23:31:25.930 ,4,1,0.,12.0,0.,12.0,0.,12.0,0.,12.0
1979-08-02 23:31:37.930 ,0,1,0.,12.0,0.,12.0,0.,12.0,0.,12.0
1979-08-02 23:31:49.930 ,0,1,0.,12.0,0.,12.0,0.,12.0,0.,12.0
1979-08-02 23:32:01.930 ,3,1,0.,12.0,0.,12.0,0.,12.0,0.,12.0
1979-08-02 23:32:13.930 ,3,1,0.,12.0,0.,12.0,0.,12.0,0.,12.0
1979-08-02 23:32:25.930 ,7,1,0.,12.0,0.,12.0,0.,12.0,0.,12.0
1979-08-02 23:32:37.930 ,7,1,0.,12.0,0.,12.0,0.,12.0,0.,12.0
1979-08-02 23:32:49.930 ,4,1,0.,12.0,0.,12.0,0.,12.0,0.,12.0
1979-08-02 23:33:01.930 ,4,1,0.,12.0,0.,12.0,0.,12.0,0.,12.0
1979-08-02 23:33:13.930 ,0,1,0.,12.0,0.,12.0,0.,12.0,0.,12.0
1979-08-02 23:33:25.930 ,0,1,0.,12.0,0.,12.0,0.,12.0,0.,12.0
1979-08-02 23:33:37.930 ,3,1,0.,12.0,0.,12.0,0.,12.0,0.,12.0
1979-08-02 23:33:49.930 ,3,1,0.,12.0,0.,12.0,0.,12.0,0.,12.0
1979-08-02 23:34:01.930 ,7,1,0.,12.0,0.,12.0,0.,12.0,0.,12.0
1979-08-02 23:34:13.930 ,7,1,0.,12.0,0.,12.0,0.,12.0,0.,12.0
1979-08-02 23:34:25.930 ,4,1,0.,12.0,0.,12.0,0.,12.0,0.,12.0
1979-08-02 23:34:37.930 ,4,1,0.,12.0,0.,12.0,0.,12.0,0.,12.0
1979-08-02 23:34:49.930 ,0,1,0.,12.0,0.,12.0,0.,12.0,0.,12.0
1979-08-02 23:35:01.930 ,0,1,0.,12.0,0.,12.0,0.,12.0,1.,12.0
1979-08-02 23:35:13.930 ,3,1,0.,12.0,0.,12.0,0.,12.0,0.,12.0
1979-08-02 23:35:25.930 ,3,1,0.,12.0,0.,12.0,0.,12.0,0.,12.0
1979-08-02 23:35:37.930 ,7,1,0.,12.0,0.,12.0,0.,12.0,0.,12.0
1979-08-02 23:35:49.930 ,7,1,0.,12.0,0.,12.0,0.,12.0,0.,12.0
1979-08-02 23:36:01.930 ,4,1,0.,12.0,0.,12.0,0.,12.0,0.,12.0
1979-08-02 23:36:13.930 ,4,1,0.,12.0,0.,12.0,0.,12.0,0.,12.0
1979-08-02 23:36:25.930 ,0,1,0.,12.0,0.,12.0,0.,12.0,0.,12.0
1979-08-02 23:36:37.930 ,0,1,0.,12.0,0.,12.0,0.,12.0,0.,12.0
1979-08-02 23:36:49.930 ,3,1,0.,12.0,0.,12.0,0.,12.0,0.,12.0
1979-08-02 23:37:01.930 ,3,1,0.,12.0,0.,12.0,0.,12.0,1.,12.0
1979-08-02 23:37:13.930 ,7,1,0.,12.0,0.,12.0,0.,12.0,0.,12.0
1979-08-02 23:37:25.930 ,7,1,0.,12.0,0.,12.0,0.,12.0,0.,12.0
1979-08-02 23:37:37.930 ,4,1,0.,12.0,0.,12.0,0.,12.0,0.,12.0
1979-08-02 23:37:49.930 ,4,1,0.,12.0,0.,12.0,0.,12.0,0.,12.0
1979-08-02 23:38:01.930 ,0,1,0.,12.0,0.,12.0,0.,12.0,0.,12.0
1979-08-02 23:38:13.930 ,0,1,0.,12.0,0.,12.0,0.,12.0,0.,12.0
1979-08-02 23:38:25.930 ,3,1,0.,12.0,0.,12.0,0.,12.0,0.,12.0
1979-08-02 23:38:37.930 ,3,1,0.,12.0,0.,12.0,0.,12.0,0.,12.0
1979-08-02 23:38:49.930 ,7,1,0.,12.0,0.,12.0,0.,12.0,0.,12.0
1979-08-02 23:39:01.930 ,7,1,0.,12.0,0.,12.0,0.,12.0,0.,12.0
1979-08-02 23:39:13.930 ,4,1,0.,12.0,0.,12.0,0.,12.0,0.,12.0
1979-08-02 23:39:25.930 ,4,1,0.,12.0,0.,12.0,0.,12.0,0.,12.0
1979-08-02 23:39:37.930 ,0,1,0.,12.0,0.,12.0,0.,12.0,0.,12.0
1979-08-02 23:39:49.930 ,0,1,0.,12.0,0.,12.0,0.,12.0,0.,12.0
1979-08-02 23:40:01.930 ,3,1,0.,12.0,0.,12.0,0.,12.0,0.,12.0
1979-08-02 23:40:13.930 ,3,1,0.,12.0,0.,12.0,0.,12.0,0.,12.0
1979-08-02 23:40:25.930 ,7,1,0.,12.0,0.,12.0,0.,12.0,0.,12.0
1979-08-02 23:40:37.930 ,7,1,0.,12.0,0.,12.0,0.,12.0,0.,12.0
1979-08-02 23:40:49.930 ,4,1,0.,12.0,0.,12.0,0.,12.0,0.,12.0
1979-08-02 23:41:01.930 ,4,1,0.,12.0,0.,12.0,0.,12.0,0.,12.0
1979-08-02 23:41:13.930 ,0,1,0.,12.0,0.,12.0,0.,12.0,0.,12.0
1979-08-02 23:41:25.930 ,0,1,0.,12.0,0.,12.0,0.,12.0,0.,12.0
1979-08-02 23:41:37.930 ,0,0,0.,12.0,0.,12.0,0.,12.0,0.,12.0
1979-08-02 23:41:49.930 ,0,0,0.,12.0,0.,12.0,0.,12.0,0.,12.0
1979-08-02 23:42:01.930 ,0,0,0.,12.0,0.,12.0,0.,12.0,0.,12.0
1979-08-02 23:42:13.930 ,0,0,0.,12.0,0.,12.0,0.,12.0,0.,12.0
1979-08-02 23:42:25.930 ,5,1,0.,12.0,0.,12.0,0.,12.0,0.,12.0
1979-08-02 23:42:37.930 ,5,1,0.,12.0,0.,12.0,0.,12.0,0.,12.0
1979-08-02 23:42:49.930 ,5,0,0.,12.0,0.,12.0,0.,12.0,0.,12.0
1979-08-02 23:43:01.930 ,5,0,0.,12.0,0.,12.0,0.,12.0,0.,12.0
1979-08-02 23:43:13.930 ,4,1,0.,12.0,0.,12.0,0.,12.0,0.,12.0
1979-08-02 23:43:25.930 ,4,1,0.,12.0,0.,12.0,0.,12.0,0.,12.0
1979-08-02 23:43:37.930 ,4,0,0.,12.0,0.,12.0,0.,12.0,0.,12.0
1979-08-02 23:43:49.930 ,4,0,0.,12.0,0.,12.0,0.,12.0,0.,12.0
1979-08-02 23:44:01.930 ,3,1,0.,12.0,0.,12.0,0.,12.0,0.,12.0
1979-08-02 23:44:13.930 ,3,1,0.,12.0,0.,12.0,0.,12.0,0.,12.0
1979-08-02 23:44:25.930 ,3,0,0.,12.0,0.,12.0,0.,12.0,0.,12.0
1979-08-02 23:44:37.930 ,3,0,0.,12.0,0.,12.0,0.,12.0,0.,12.0
1979-08-02 23:44:49.930 ,2,1,0.,12.0,0.,12.0,0.,12.0,0.,12.0
1979-08-02 23:45:01.930 ,2,1,0.,12.0,0.,12.0,0.,12.0,0.,12.0
1979-08-02 23:45:13.930 ,2,0,0.,12.0,0.,12.0,0.,12.0,0.,12.0
1979-08-02 23:45:25.930 ,2,0,0.,12.0,0.,12.0,0.,12.0,0.,12.0
1979-08-02 23:45:37.930 ,1,1,0.,12.0,0.,12.0,0.,12.0,0.,12.0
1979-08-02 23:45:49.930 ,1,1,0.,12.0,0.,12.0,0.,12.0,0.,12.0
1979-08-02 23:46:01.930 ,1,0,0.,12.0,0.,12.0,0.,12.0,0.,12.0
1979-08-02 23:46:13.930 ,1,0,0.,12.0,0.,12.0,0.,12.0,0.,12.0
1979-08-02 23:46:25.930 ,0,1,0.,12.0,0.,12.0,0.,12.0,0.,12.0
1979-08-02 23:46:37.930 ,0,1,0.,12.0,0.,12.0,0.,12.0,0.,12.0
1979-08-02 23:46:49.930 ,0,0,0.,12.0,0.,12.0,0.,12.0,0.,12.0
1979-08-02 23:47:01.930 ,0,0,0.,12.0,0.,12.0,0.,12.0,0.,12.0
1979-08-02 23:47:13.930 ,0,1,0.,12.0,0.,12.0,0.,12.0,0.,12.0
1979-08-02 23:47:25.930 ,0,1,0.,12.0,0.,12.0,0.,12.0,0.,12.0
1979-08-02 23:47:37.930 ,0,0,0.,12.0,0.,12.0,0.,12.0,0.,12.0
1979-08-02 23:47:49.930 ,0,0,0.,12.0,0.,12.0,0.,12.0,0.,12.0
1979-08-02 23:48:01.930 ,1,1,0.,12.0,0.,12.0,0.,12.0,0.,12.0
1979-08-02 23:48:13.930 ,1,1,0.,12.0,0.,12.0,0.,12.0,0.,12.0
1979-08-02 23:48:25.930 ,1,0,0.,12.0,0.,12.0,0.,12.0,0.,12.0
1979-08-02 23:48:37.930 ,1,0,0.,12.0,0.,12.0,0.,12.0,0.,12.0
1979-08-02 23:48:49.930 ,2,1,0.,12.0,0.,12.0,0.,12.0,0.,12.0
1979-08-02 23:49:01.930 ,2,1,0.,12.0,0.,12.0,0.,12.0,0.,12.0
1979-08-02 23:49:13.930 ,2,0,0.,12.0,0.,12.0,0.,12.0,0.,12.0
1979-08-02 23:49:25.930 ,2,0,0.,12.0,0.,12.0,0.,12.0,0.,12.0
1979-08-02 23:49:37.930 ,3,1,0.,12.0,0.,12.0,0.,12.0,0.,12.0
1979-08-02 23:49:49.930 ,3,1,0.,12.0,0.,12.0,0.,12.0,0.,12.0
1979-08-02 23:50:01.930 ,3,0,0.,12.0,0.,12.0,0.,12.0,0.,12.0
1979-08-02 23:50:13.930 ,3,0,0.,12.0,0.,12.0,0.,12.0,0.,12.0
1979-08-02 23:50:25.930 ,4,1,0.,12.0,0.,12.0,0.,12.0,0.,12.0
1979-08-02 23:50:37.930 ,4,1,0.,12.0,0.,12.0,0.,12.0,0.,12.0
1979-08-02 23:50:49.930 ,4,0,0.,12.0,0.,12.0,0.,12.0,0.,12.0
1979-08-02 23:51:01.930 ,4,0,0.,12.0,0.,12.0,0.,12.0,0.,12.0
1979-08-02 23:51:13.930 ,5,1,0.,12.0,0.,12.0,0.,12.0,0.,12.0
1979-08-02 23:51:25.930 ,5,1,0.,12.0,0.,12.0,0.,12.0,0.,12.0
1979-08-02 23:51:37.930 ,5,0,0.,12.0,0.,12.0,0.,12.0,0.,12.0
1979-08-02 23:51:49.930 ,5,0,0.,12.0,0.,12.0,0.,12.0,0.,12.0
1979-08-02 23:52:01.930 ,6,1,0.,12.0,0.,12.0,0.,12.0,0.,12.0
1979-08-02 23:52:13.930 ,6,1,0.,12.0,0.,12.0,0.,12.0,0.,12.0
1979-08-02 23:52:25.930 ,6,0,0.,12.0,0.,12.0,0.,12.0,0.,12.0
1979-08-02 23:52:37.930 ,6,0,0.,12.0,0.,12.0,0.,12.0,0.,12.0
1979-08-02 23:52:49.930 ,7,1,0.,12.0,0.,12.0,0.,12.0,0.,12.0
1979-08-02 23:53:01.930 ,7,1,0.,12.0,0.,12.0,0.,12.0,0.,12.0
1979-08-02 23:53:13.930 ,7,0,0.,12.0,0.,12.0,0.,12.0,0.,12.0
1979-08-02 23:53:25.930 ,7,0,0.,12.0,0.,12.0,0.,12.0,0.,12.0
1979-08-02 23:53:37.930 ,7,1,0.,12.0,0.,12.0,0.,12.0,0.,12.0
1979-08-02 23:53:49.930 ,7,1,0.,12.0,0.,12.0,0.,12.0,0.,12.0
1979-08-02 23:54:01.930 ,7,0,0.,12.0,0.,12.0,0.,12.0,0.,12.0
1979-08-02 23:54:13.930 ,7,0,0.,12.0,0.,12.0,0.,12.0,0.,12.0
1979-08-02 23:54:25.930 ,6,1,0.,12.0,0.,12.0,0.,12.0,0.,12.0
1979-08-02 23:54:37.930 ,6,1,0.,12.0,0.,12.0,0.,12.0,0.,12.0
1979-08-02 23:54:49.930 ,6,0,0.,12.0,0.,12.0,0.,12.0,0.,12.0
1979-08-02 23:55:01.930 ,6,0,0.,12.0,0.,12.0,0.,12.0,0.,12.0
1979-08-02 23:55:13.920 ,5,1,0.,12.0,0.,12.0,0.,12.0,0.,12.0
1979-08-02 23:55:25.920 ,5,1,0.,12.0,0.,12.0,0.,12.0,0.,12.0
1979-08-02 23:55:37.920 ,5,0,0.,12.0,0.,12.0,0.,12.0,0.,12.0
1979-08-02 23:55:49.920 ,5,0,0.,12.0,0.,12.0,0.,12.0,0.,12.0
1979-08-02 23:56:01.920 ,4,1,0.,12.0,0.,12.0,0.,12.0,0.,12.0
1979-08-02 23:56:13.920 ,4,1,0.,12.0,0.,12.0,0.,12.0,0.,12.0
1979-08-02 23:56:25.920 ,4,0,0.,12.0,0.,12.0,0.,12.0,0.,12.0
1979-08-02 23:56:37.920 ,4,0,0.,12.0,0.,12.0,0.,12.0,0.,12.0
1979-08-02 23:56:49.920 ,3,1,0.,12.0,0.,12.0,0.,12.0,0.,12.0
1979-08-02 23:57:01.920 ,3,1,0.,12.0,0.,12.0,0.,12.0,0.,12.0
1979-08-02 23:57:13.920 ,3,0,0.,12.0,0.,12.0,0.,12.0,0.,12.0
1979-08-02 23:57:25.920 ,3,0,0.,12.0,0.,12.0,0.,12.0,0.,12.0
1979-08-02 23:57:37.920 ,2,1,0.,12.0,0.,12.0,0.,12.0,0.,12.0
1979-08-02 23:57:49.920 ,2,1,0.,12.0,0.,12.0,0.,12.0,0.,12.0
1979-08-02 23:58:01.920 ,2,0,0.,12.0,0.,12.0,0.,12.0,0.,12.0
1979-08-02 23:58:13.920 ,2,0,0.,12.0,0.,12.0,0.,12.0,0.,12.0
1979-08-02 23:58:25.920 ,1,1,0.,12.0,0.,12.0,0.,12.0,0.,12.0
1979-08-02 23:58:37.920 ,1,1,0.,12.0,0.,12.0,0.,12.0,0.,12.0
1979-08-02 23:58:49.920 ,1,0,0.,12.0,0.,12.0,0.,12.0,0.,12.0
1979-08-02 23:59:01.920 ,1,0,0.,12.0,0.,12.0,0.,12.0,0.,12.0
1979-08-02 23:59:13.920 ,0,1,0.,12.0,0.,12.0,0.,12.0,0.,12.0
1979-08-02 23:59:25.920 ,0,1,0.,12.0,0.,12.0,0.,12.0,0.,12.0
1979-08-02 23:59:37.920 ,0,0,0.,12.0,0.,12.0,0.,12.0,0.,12.0
1979-08-02 23:59:49.920 ,0,0,0.,12.0,0.,12.0,0.,12.0,0.,12.0
1979-08-03 00:00:01.920 ,0,1,0.,12.0,0.,12.0,0.,12.0,0.,12.0
1979-08-03 00:00:13.920 ,0,1,0.,12.0,0.,12.0,0.,12.0,0.,12.0
